Content
SEND FEEDBACK

Daily
Averages
Monthly
Summary
United States of America

COLEHARBOR, NORTH DAKOTA


Home > North America > United States > North Dakota
Elevation: 191 feet     Latitude: 47 30N     Longitude: 101 21W

WEATHER
 
SELECT A DAY
Number of Records: 207,990;   Date Range: 1/1/95 - 7/22/14
 
SHARE

PRINT THIS DATA

[ ← Previous Day ]
WEATHER ALMANAC - FEBRUARY 13, 2013
[ Next Day → ]
[ °C ]   °F
Weather ElementAverageHighLow
Temperature31.4 °F35.1 °F (12:52 pm)28.9 °F (4:52 am)
Dewpoint28.1 °F30.9 °F (12:52 pm)24.1 °F (3:52 am)
Humidity87.5 %96 % (8:52 am)75 % (1:52 am)
Barometer29.71 in29.80 in (7:52 pm)29.62 in (9:52 am)
Wind Speed10.1 mph26.5 mph (1:52 pm)
Wind Gust32.2 mph (1:52 pm)
Weather ElementAverage
Wind DirectionWSW (233.9 °)

Weather ElementTotal
Precipitation0.16 in
Heating Degree Days33 (Base 65)
Averaged from 23 records on February 13, 2013
WEATHER CONDITIONS BREAKOUT
WIND DIRECTION BREAKOUT
WEATHER BY HOUR - FEBRUARY 13, 2013
[ °C ]   °F
Local TimeTemperatureDewpointHumidityBarometerVisibilityWind DirectionWind SpeedGust SpeedPrecipitationEventsConditions
1:52 AM32.0 °F25.0 °F75 %29.78 inWest (280°)10.4 mph
2:52 AM30.9 °F25.0 °F79 %29.75 inWest (280°)8.1 mph
3:52 AM30.0 °F24.1 °F79 %29.73 inWest (260°)3.5 mph
4:52 AM28.9 °F24.1 °F82 %29.70 inCalm
5:52 AM28.9 °F25.0 °F85 %29.68 inCalm
6:52 AM28.9 °F27.0 °F92 %29.66 inCalm0.02 in
7:52 AM28.9 °F27.0 °F92 %29.64 inSSW (210°)3.5 mph0.05 in
8:52 AM28.9 °F28.0 °F96 %29.64 inCalm0.04 in
9:52 AM30.9 °F30.0 °F96 %29.62 inCalm0.02 in
10:52 AM32.0 °F30.0 °F92 %29.62 inWest (270°)8.1 mph0.02 in
11:52 AM34.0 °F30.0 °F85 %29.62 inWNW (300°)19.6 mph
12:52 PM35.1 °F30.9 °F85 %29.63 inNW (310°)24.2 mph
1:52 PM35.1 °F30.0 °F82 %29.63 inNW (320°)26.5 mph32.2 mph
2:52 PM34.0 °F30.0 °F85 %29.66 inNNW (330°)19.6 mph
3:52 PM33.1 °F30.0 °F89 %29.70 inNNW (330°)20.7 mph
4:52 PM32.0 °F28.9 °F88 %29.73 inNorth (350°)16.1 mph
5:52 PM32.0 °F28.9 °F88 %29.76 inNNW (330°)12.7 mph
6:52 PM30.9 °F28.9 °F92 %29.79 inNW (320°)9.2 mph
7:52 PM30.9 °F28.9 °F92 %29.80 inWNW (300°)6.9 mph
8:52 PM30.9 °F28.9 °F92 %29.79 inNW (310°)8.1 mph0.01 in
9:52 PM30.9 °F28.9 °F92 %29.80 inWNW (290°)9.2 mph
10:52 PM32.0 °F30.0 °F92 %29.79 inWNW (290°)4.6 mph
11:52 PM30.9 °F26.1 °F82 %29.80 inWNW (300°)21.9 mph
Hourly data recorded from KN60, located miles away from Coleharbor, North Dakota







STORIES FROM OUR PARTNERS